Date,TemperatureHighF,TemperatureAvgF,TemperatureLowF,DewpointHighF,DewpointAvgF,DewpointLowF,HumidityHigh,HumidityAvg,HumidityLow,PressureMaxIn,PressureMinIn,WindSpeedMaxMPH,WindSpeedAvgMPH,GustSpeedMaxMPH,PrecipitationSumIn
2013-1-1,15,11,9,3,-4,-7,76,51,38,30.40,30.13,13,6,25,0.00
2013-1-2,17,12,9,0,-3,-6,60,51,42,30.49,30.30,12,6,23,0.01
2013-1-3,16,14,13,-2,-3,-4,49,45,42,30.47,30.35,1,0,1,0.00
2013-1-4,34,20,12,10,4,-3,60,50,35,30.37,30.14,2,0,4,0.00
2013-1-5,28,27,26,-4,-7,-13,26,22,17,30.36,30.26,8,6,17,0.00
2013-1-6,46,28,18,-4,-10,-16,30,20,8,30.32,29.93,8,2,13,0.02
2013-1-8,32,29,27,15,11,-10,54,46,16,30.23,29.67,15,6,30,0.00
2013-1-9,31,31,30,10,10,9,42,41,40,30.25,30.20,10,8,14,0.00
2013-1-10,44,36,25,10,3,-1,48,27,15,29.58,29.37,7,3,9,0.02
2013-1-11,25,24,23,17,9,5,74,53,44,29.37,29.21,6,1,6,0.00
2013-1-12,-7,-8,-9,-15,-16,-17,67,66,66,30.28,30.25,0,0,0,0.00
2013-1-13,6,-2,-9,-4,-10,-17,76,68,62,30.47,30.20,5,1,8,0.00
2013-1-14,8,3,1,-11,-14,-15,47,46,41,30.50,30.27,10,6,18,0.00
2013-1-15,21,12,0,6,-6,-21,51,43,35,30.42,30.28,15,9,33,0.00
2013-1-16,33,27,18,15,12,4,62,53,46,30.38,30.22,15,8,24,0.00
2013-1-17,40,28,16,15,6,0,65,41,22,30.58,30.22,11,3,18,0.00
2013-1-18,38,33,30,6,0,-4,32,25,19,30.22,30.04,18,8,32,0.00
2013-1-19,36,32,29,1,-1,-4,28,24,18,30.24,29.97,21,8,33,0.00
2013-1-20,38,32,27,6,-1,-5,38,24,18,30.24,30.03,13,7,28,0.00
2013-1-21,35,31,27,7,1,-6,34,27,18,30.20,30.04,17,10,29,0.00
2013-1-22,42,37,33,-2,-10,-18,19,13,7,30.15,29.90,21,12,40,0.00
2013-1-23,52,43,37,5,-7,-21,23,12,6,30.15,29.94,18,8,25,0.00
2013-1-24,45,39,36,25,10,-5,63,34,16,30.02,29.78,19,8,31,0.00
2013-1-25,42,38,35,26,24,21,64,57,48,30.07,29.90,18,9,32,0.00
2013-1-26,45,37,29,28,23,18,84,58,34,29.91,29.59,10,3,17,0.00
2013-1-27,42,34,25,28,22,13,89,62,41,29.74,29.53,12,4,18,0.03
2013-1-28,44,29,20,23,15,9,80,56,26,29.66,29.44,10,2,16,0.00
2013-1-29,20,12,5,14,-2,-8,80,54,35,30.15,29.56,12,6,25,0.00
2013-1-30,22,15,6,15,5,-6,77,63,51,30.11,29.91,22,13,42,0.00
2013-1-31,28,24,21,16,13,10,80,62,48,30.20,29.88,23,15,43,0.00